Terminal Aerodrome Forecast
Issued by NWS

Home | Current Version | Previous Version | Text Only | Print | Product List | Glossary On
Versions: 1 2 3 4 5 6 7 8 9 10 11 12 13 14 15 16 17 18
000
FTUS45 KVEF 210500
TAFBIH
TAF
KBIH 210537Z 2106/2206 15010KT P6SM VCTS SCT100CB BKN200
      TEMPO 2106/2108 VRB20G30KT -TSRA BKN080CB
     FM210800 VRB05KT P6SM VCSH SCT120
     FM211200 VRB05KT P6SM SCT120
     FM212000 16012G20KT P6SM SCT120
     FM220200 16010KT P6SM FEW120=

USA.gov is the U.S. government's official web portal to all federal, state and local government web resources and services.